User: anonymous   Login
Location: Unspecified
(0.0000°N, 0.0000°E)
Time: 04:35:29
(UTC+00:00)
Language:

STARLINK-34954 - Orbit

View from above orbital plane
View from above orbital plane
View from above satellite
View from above satellite

Ground track
Ground track

The orbit is defined by the following mean orbital elements,

1 65275U          26145.10288135 +.00000000 +00000-0 -41980-4 0 00001
2 65275  97.4527 197.5353 0001474 157.2784 202.8509 15.05641694    01
Epoch (UTC): 25 May 2026 02:28:08
Eccentricity: 0.0001474
inclination: 97.4527°
perigee height: 549 km
apogee height: 551 km
right ascension of ascending node: 197.5353°
argument of perigee: 157.2784°
revolutions per day: 15.05641694
mean anomaly at epoch: 202.8509°

The dashed part of the orbit path shows where the satellite is in the earth's shadow,  

DLR